Location: Colle Santa Colomba
(42.0333°N, 12.5667°E)
Time: 03:45:26
(UTC+00:00)

NOSS 3-1 (C) - Pass Details

Date: 25 October 2021
Orbit: 717 x 1491 km, 63.4° (Epoch: 25 November)

Event Time Altitude Azimuth Distance (km) Brightness Sun altitude
Rises 17:26:18 0° 229° (SW) 3,171 7.1 -14.2°
Reaches altitude 10° 17:28:35 10° 235° (SW) 2,299 6.4 -14.7°
Maximum altitude 17:33:42 53° 312° (NW) 1,024 3.9 -15.6°
Drops below altitude 10° 17:39:43 10° 29° (NNE) 2,696 5.5 -16.7°
Enters shadow 17:41:22 - 32° (NNE) 3,308 6.0 -17.0°
